ARIANE 44LP R/B, 19689

Orbit data source: Space-Track

ARIANE 44LP R/B, 19689 is space debris in HEO originally from a launch on Sun, 11 Dec 1988 UTC launched from the French Guiana (FRGUI). Debris objects in space refer to the collection of defunct objects orbiting the Earth. Examples of debris include non-operational satellites, rocket bodies, and fragments generated from explosions, collisions, or faulty payload assembly.

Loading next visibility...
Identifier
19689, 1988-109C
Orbit
HEO
Country
Flag of FRFR
Related business
Manufacturer
Ae/LesM
Mission
Spacecraft
Bus & Motor
ARIANE H10, Unknown motor
Mass
2,260 kg wet, 2,080 kg dry
Launch date (UTC)
1988-12-11 (37 years ago)
Launch vehicle
Unknown
Launch site
French Guiana (FRGUI)
Object type
Payload
Rocket body
Debris
Shape & HBR
Cyl, 7.0 m
Radar Cross Section
31.447 m², Large (>1 m²)

Expand to show TLE details & history
Last TLE update: 22 hours ago

TLE from 22 hours ago
0 ARIANE 44LP R/B
1 19689U 88109C   26035.19825620  .00000023  00000-0  56830-3 0  9998
2 19689   7.2779 304.7712 7170234 279.2431  12.8630  2.30211458275069
Epoch: 2026-02-04T04:45Z
TLE epoch observation values (Epoch: 2026-02-04T04:45:29.335Z)
Latitude
0.00041°
Longitude
99.29362°
Altitude
4,247.656 km
Speed
7.653 km/s
True Right ascension
20h 20m 08s
True Declination
0° 00' 01"
Sunlit
Object was in daylight at epoch
Visualization orbit readout
Latitude
Unknown
Longitude
Unknown
Altitude
Unknown
Speed
Unknown
Apparent Right ascension
Unknown
Apparent Declination
Unknown
Sunlit
N/A
Visualization observer readout
Local Sidereal Time
04:38:47
Azimuth
Unknown
Elevation
Unknown
Doppler factor
Unknown
Orbital elements
Apogee altitude
35,230.894 km
Perigee altitude
479.301 km
Semi-major axis
24,233.234 km
Eccentricity
0.71702
Inclination
7.2779°
RAAN
304.7712°
Arg. of periapsis
279.2431°
True anomaly
81.17803°
Mean anomaly
12.863°
Eccentric anomaly
38.35718°
Mean motion
0.57534 °/min
Orbital period
625.71 mins
BSTAR
0.0005683
Loading maneuver chart data...
Computing Atmospheric mass density...
Loading historical data...
Loading historical data...
Loading historical data...
Loading historical data...
Loading historical data...
Loading historical data...
Loading historical data...

Documentation

Showing up to 5 results
|